Odd, WV (25902)

4:42 AM EDT on July 28, 2015 (GMT -0400)
Flat Top Lake | | Change Station
CLOSE
Current Station
Personal Weather Station
Location: Ghent, WV
Elevation: 2969 ft
Nearby Weather Stations

Elev 2969 ft 37.62 °N, 81.09 °W | Updated 5 minutes ago

Overcast
Overcast
67.5 °F
Feels Like 67.5 °F
N
0.0
Wind Variable Wind from ESE

Today
High -- | Low -- °F
--% Chance of Precip.
Yesterday
High -- | Low -- °F
Precip. -- in
6:25 AM 8:36 PM
Waxing Gibbous, 88% visible
Pressure 30.08 in
Visibility 6.0 miles
Clouds Scattered Clouds 6000 ft
Mostly Cloudy 8500 ft
Overcast 11000 ft
Dew Point 67 °F
Humidity 99%
Rainfall 0.00 in
Snow Depth Not available.
UV 0 out of 12
Pollen 4.00 out of 12
Air Quality Not available.
Flu Activity Not available.
SPECI KBKW 280831Z AUTO 15004KT 6SM RA BR SCT060 BKN085 OVC110 21/19 A3008 RMK AO2 TSE07B10E25 P0014 T02060189

More Conditions Fewer Conditions

Pressure 30.08 in
Visibility 6.0 miles
Clouds Scattered Clouds 6000 ft
Mostly Cloudy 8500 ft
Overcast 11000 ft
Dew Point 67 °F
Humidity 99%
Rainfall 0.00 in
Snow Depth Not available.
UV 0 out of 12
Pollen 4.00 out of 12
Air Quality Not available.
Flu Activity Not available.
SPECI KBKW 280831Z AUTO 15004KT 6SM RA BR SCT060 BKN085 OVC110 21/19 A3008 RMK AO2 TSE07B10E25 P0014 T02060189

More Conditions Fewer Conditions

10-Day Weather Forecast

×

Almanac

Astronomy

Jul. 28, 2015 Rise Set
Actual Time
Civil Twilight
Nautical Twilight
Astronomical Twilight
Moon
Length of Visible Light
Length of Day
Tomorrow will be .
, % of the Moon is Illuminated

Today's Extremes

State Highs State Lows

Community

WunderPhotos

Upload Photos

1,841,801 photos uploaded!

WunderBlogs® & News

Nearby

Air Quality

  Air Quality AQ Index Pollutant
Not available.

Snow Depth

Station Depth Elevation

Earthquake Activity

City Distance Mag. Time & Date
Minimum magnitude displayed is 2.5.

Coastal Water Temperatures

Place Temperature

Stations

Nearby Weather Stations

Station Location Temp. Windchill Dew Point Humidity Wind Precip. Elev Updated Type